Date String (YYYY-MM-DD hh:mm:ss) UTC,Instrument flags,Ambient pressure (hPa),Sample flow (lpm),Bypass flow (lpm),Sample temperature (°C),Ambient temperature (°C),ASC tube jacket temperature (°C),LED temperature (°C),Box temperature (°C),Sample RH (%),Span deviation,Mass concentration (μg/m³),Mass concentration (μg/m³),Mass concentration (μg/m³)
DateTimeUTC,F1_M11,P_M11,Q1_M11,Q2_M11,T1_M11,T2_M11,T3_M11,T4_M11,T5_M11,U1_M11,ZSPAN_M11,X0_M11,X2_M11,X1_M11
2021-12-04 10:00:00,,0828.0,5.00,0.00,24.4,23.6,00.0,33.5,26.2,15.0,0000.0,0016.90,0004.09,0002.87
2021-12-04 10:01:00,,0828.0,4.99,0.00,24.4,23.6,00.0,33.5,26.2,15.0,0000.0,0017.81,0004.11,0002.88
2021-12-04 10:02:00,,0828.0,5.01,0.00,24.4,23.6,00.0,33.5,26.2,15.0,0000.0,0017.45,0004.16,0002.90
2021-12-04 10:03:00,,0828.1,4.99,0.00,24.4,23.6,00.0,33.5,26.1,15.1,0000.0,0017.04,0004.18,0002.92
2021-12-04 10:04:00,,0828.0,5.00,0.00,24.4,23.6,00.0,33.5,26.1,15.1,0000.0,0015.85,0004.18,0002.93
2021-12-04 10:05:00,,0828.0,5.01,0.00,24.4,23.5,00.0,33.5,26.1,15.1,0000.0,0015.52,0004.17,0002.95
2021-12-04 10:06:00,,0827.9,4.99,0.00,24.4,23.5,00.0,33.5,26.1,15.2,0000.0,0013.51,0004.16,0002.97
2021-12-04 10:07:00,,0828.0,5.00,0.00,24.4,23.5,00.0,33.4,26.1,15.2,0000.0,0012.82,0004.15,0002.97
2021-12-04 10:08:00,,0828.0,5.01,0.00,24.4,23.5,00.0,33.4,26.1,15.3,0000.0,0012.40,0004.15,0002.99
2021-12-04 10:09:00,,0827.9,5.00,0.00,24.4,23.5,00.0,33.4,26.1,15.4,0000.0,0012.80,0004.20,0003.03
2021-12-04 10:10:00,,0827.9,5.01,0.00,24.3,23.5,00.0,33.4,26.1,15.4,0000.0,0013.20,0004.21,0003.04
2021-12-04 10:11:00,,0827.9,5.00,0.00,24.3,23.5,00.0,33.4,26.1,15.4,0000.0,0013.69,0004.26,0003.06
2021-12-04 10:12:00,,0828.0,4.99,0.00,24.3,23.5,00.0,33.4,26.1,15.4,0000.0,0013.47,0004.28,0003.11
2021-12-04 10:13:00,,0827.9,5.00,0.00,24.3,23.5,00.0,33.4,26.1,15.4,0000.0,0013.24,0004.26,0003.13
2021-12-04 10:14:00,,0827.9,5.01,0.00,24.3,23.5,00.0,33.4,26.1,15.4,0000.0,0013.23,0004.23,0003.15
2021-12-04 10:15:00,,0828.0,5.00,0.00,24.3,23.5,00.0,33.4,26.0,15.5,0000.0,0014.76,0004.28,0003.18
2021-12-04 10:16:00,,0827.9,5.00,0.00,24.3,23.4,00.0,33.4,26.0,15.5,0000.0,0015.29,0004.31,0003.19
2021-12-04 10:17:00,,0827.9,5.01,0.00,24.3,23.4,00.0,33.4,26.0,15.5,0000.0,0015.86,0004.34,0003.20
2021-12-04 10:18:00,,0827.9,4.99,0.00,24.3,23.4,00.0,33.3,26.0,15.5,0000.0,0016.27,0004.38,0003.22
2021-12-04 10:19:00,,0827.9,5.01,0.00,24.3,23.4,00.0,33.3,26.0,15.5,0000.0,0016.14,0004.41,0003.24
2021-12-04 10:20:00,,0828.0,4.99,0.00,24.2,23.4,00.0,33.3,26.0,15.5,0000.0,0016.36,0004.42,0003.25
2021-12-04 10:21:00,,0827.9,5.00,0.00,24.3,23.4,00.0,33.3,26.0,15.6,0000.0,0015.94,0004.45,0003.27
2021-12-04 10:22:00,,0827.9,5.02,0.00,24.3,23.4,00.0,33.3,26.0,15.6,0000.0,0015.18,0004.44,0003.29
2021-12-04 10:23:00,,0827.9,4.99,0.00,24.3,23.4,00.0,33.3,26.0,15.6,0000.0,0014.62,0004.44,0003.29
2021-12-04 10:24:00,,0827.9,5.01,0.00,24.3,23.4,00.0,33.3,26.0,15.6,0000.0,0015.05,0004.53,0003.31
2021-12-04 10:25:00,,0827.8,5.01,0.00,24.2,23.4,00.0,33.3,26.0,15.6,0000.0,0015.29,0004.58,0003.32
2021-12-04 10:26:00,,0827.9,4.98,0.00,24.2,23.4,00.0,33.3,26.0,15.6,0000.0,0014.31,0004.61,0003.33
2021-12-04 10:27:00,,0827.9,5.01,0.00,24.2,23.4,00.0,33.3,26.0,15.6,0000.0,0013.44,0004.60,0003.34
2021-12-04 10:28:00,,0827.9,4.99,0.00,24.2,23.4,00.0,33.3,26.0,15.6,0000.0,0013.00,0004.58,0003.35
2021-12-04 10:29:00,,0827.9,5.00,0.00,24.2,23.4,00.0,33.3,26.0,15.6,0000.0,0013.45,0004.64,0003.35
2021-12-04 10:30:00,,0827.9,5.00,0.00,24.2,23.4,00.0,33.2,26.0,15.6,0000.0,0013.79,0004.61,0003.35
2021-12-04 10:31:00,,0827.9,4.99,0.00,24.2,23.4,00.0,33.2,26.0,15.5,0000.0,0013.16,0004.60,0003.34
2021-12-04 10:32:00,,0827.8,5.01,0.00,24.2,23.4,00.0,33.2,26.0,15.5,0000.0,0013.09,0004.56,0003.32
2021-12-04 10:33:00,,0827.8,5.00,0.00,24.2,23.4,00.0,33.2,26.0,15.5,0000.0,0013.83,0004.55,0003.30
2021-12-04 10:34:00,,0827.7,5.01,0.00,24.2,23.4,00.0,33.2,26.0,15.5,0000.0,0014.48,0004.56,0003.29
2021-12-04 10:35:00,,0827.7,4.99,0.00,24.2,23.4,00.0,33.2,26.0,15.5,0000.0,0014.39,0004.55,0003.27
2021-12-04 10:36:00,,0827.7,5.01,0.00,24.2,23.4,00.0,33.2,25.9,15.5,0000.0,0014.08,0004.53,0003.26
2021-12-04 10:37:00,,0827.7,5.00,0.00,24.2,23.4,00.0,33.2,26.0,15.5,0000.0,0013.71,0004.46,0003.24
2021-12-04 10:38:00,,0827.7,5.00,0.00,24.2,23.4,00.0,33.2,26.0,15.5,0000.0,0013.77,0004.43,0003.21
2021-12-04 10:39:00,,0827.7,5.00,0.00,24.2,23.4,00.0,33.2,26.0,15.5,0000.0,0013.49,0004.46,0003.19
2021-12-04 10:40:00,,0827.7,5.01,0.00,24.2,23.4,00.0,33.2,26.0,15.5,0000.0,0012.70,0004.39,0003.17
2021-12-04 10:41:00,,0827.7,4.99,0.00,24.2,23.4,00.0,33.2,26.0,15.5,0000.0,0012.62,0004.40,0003.17
2021-12-04 10:42:00,,0827.8,4.99,0.00,24.2,23.4,00.0,33.2,26.0,15.6,0000.0,0012.82,0004.38,0003.16
2021-12-04 10:43:00,,0827.7,5.01,0.00,24.2,23.4,00.0,33.2,26.0,15.6,0000.0,0012.97,0004.38,0003.15
2021-12-04 10:44:00,,0827.7,5.00,0.00,24.2,23.4,00.0,33.2,26.0,15.6,0000.0,0012.38,0004.39,0003.14
2021-12-04 10:45:00,,0827.7,4.99,0.00,24.2,23.3,00.0,33.2,26.0,15.6,0000.0,0011.86,0004.38,0003.14
2021-12-04 10:46:00,,0827.7,5.00,0.00,24.2,23.3,00.0,33.2,26.0,15.6,0000.0,0012.00,0004.28,0003.14
2021-12-04 10:47:00,,0827.7,5.00,0.00,24.2,23.3,00.0,33.2,25.9,15.6,0000.0,0012.23,0004.31,0003.13
2021-12-04 10:48:00,,0827.7,5.00,0.00,24.2,23.3,00.0,33.2,25.9,15.6,0000.0,0012.19,0004.30,0003.14
2021-12-04 10:49:00,,0827.6,5.00,0.00,24.2,23.3,00.0,33.2,25.9,15.6,0000.0,0012.56,0004.33,0003.14
2021-12-04 10:50:00,,0827.6,5.00,0.00,24.2,23.3,00.0,33.2,25.9,15.6,0000.0,0012.68,0004.35,0003.15
2021-12-04 10:51:00,,0827.6,5.00,0.00,24.2,23.3,00.0,33.2,25.9,15.6,0000.0,0013.15,0004.40,0003.16
2021-12-04 10:52:00,,0827.6,4.99,0.00,24.2,23.3,00.0,33.2,25.9,15.6,0000.0,0013.48,0004.35,0003.14
2021-12-04 10:53:00,,0827.6,5.01,0.00,24.2,23.3,00.0,33.2,25.9,15.6,0000.0,0013.66,0004.33,0003.14
2021-12-04 10:54:00,,0827.6,4.99,0.00,24.2,23.3,00.0,33.2,25.9,15.6,0000.0,0013.82,0004.35,0003.15
2021-12-04 10:55:00,,0827.6,5.01,0.00,24.1,23.3,00.0,33.2,25.9,15.6,0000.0,0013.99,0004.33,0003.17
2021-12-04 10:56:00,,0827.6,5.00,0.00,24.1,23.3,00.0,33.1,25.9,15.7,0000.0,0014.14,0004.33,0003.19
2021-12-04 10:57:00,,0827.6,5.00,0.00,24.1,23.3,00.0,33.1,25.9,15.7,0000.0,0014.88,0004.37,0003.20
2021-12-04 10:58:00,,0827.7,5.01,0.00,24.1,23.3,00.0,33.1,25.9,15.7,0000.0,0015.07,0004.36,0003.22
2021-12-04 10:59:00,,0827.7,4.99,0.00,24.1,23.3,00.0,33.1,25.9,15.7,0000.0,0015.09,0004.39,0003.25
